Location: Ammerl�gen
(47.2167°N, 9.6000°E)
Time: 09:59:29
(UTC+00:00)

Cosmos 1655 Rocket - Pass Details

Date: 21 April 2021
Orbit: 970 x 1007 km, 82.9° (Epoch: 06 May)

Event Time Altitude Azimuth Distance (km) Brightness Sun altitude
Rises 20:07:50 0° 350° (N) 3,706 7.9 -16.8°
Reaches altitude 10° 20:10:22 10° 350° (N) 2,748 7.1 -17.1°
Maximum altitude 20:16:41 84° 263° (W) 988 4.0 -17.9°
Enters shadow 20:21:20 19° 177° (S) 2,137 5.4 -18.5°
